www.pogodaiklimat.ru

Погода и климат >> Архив погоды >> Россия >> Саратовская область >> Октябрьский Городок


ПОГОДА в Октябрьском Городке

  • Прогноз погоды в Октябрьском Городке
  • Монитор погоды в Октябрьском Городке

АРХИВ ПОГОДЫ в Октябрьском Городке

Время (UTC), дата Ветер
(напр.,м/с)
 
Видим.   Явления Облачность Т
(С)
Тd
(С)
f
(%)
Тe
(С)
Тes
(С)
Комфортность P
(гПа)
Po
(гПа)
Тmin
(С)
Tmax
(С)
R
(мм)
R24
(мм)
S
(см)
15 11.04 ЮВ 2 20 км 3/1 600 м
[Cu hum Ci fib]
+18.9 +2.1 33 +20 +20 1016.3 992.5 +20.6
18 11.04 СВ 2 20 км ясно +10.6 +4.1 64 +9 +9 1017.6 993.1
21 11.04 В 3 20 км ясно +9.0 +4.0 71 +7 +7 1017.1 992.5
00 12.04 В 3 20 км ясно +6.7 +3.6 81 +4 +4 1016.6 991.8
03 12.04 В 3 20 км 6/0
[Ci fib]
+6.8 +4.0 82 +4 +4 1016.2 991.5 +5.3
06 12.04 В 3 20 км 8/4 600 м
[Cu hum Ci fib]
+13.0 +5.5 60 +12 +15 1015.7 991.5
09 12.04 В 4 20 км 9/8 600 м
[Cu hum Ci fib]
+18.2 +6.0 45 +18 +20 1014.7 991.0
12 12.04 В 2 20 км 8/4 600 м
[Cu hum Ci fib]
+21.3 +2.6 29 +21 +25 комфорт 1013.3 989.9
15 12.04 ЮВ 2 20 км 8/5 300 м
[Sc diur, vesp Ci fib]
+18.6 +3.7 37 +19 +20 1012.9 989.2 +21.4
18 12.04 В 2 20 км 8/0
[Ci fib]
+12.0 +4.6 61 +11 +11 1014.0 989.7
21 12.04 В 1 20 км 8/0
[Ci fib]
+9.3 +3.5 67 +9 +9 1013.6 989.1
00 13.04 СВ 1 20 км 8/0
[Ci fib]
+7.4 +2.5 71 +7 +7 1013.3 988.7
03 13.04 штиль 0 20 км 10/0
[Ac As Ci]
+5.5 +3.0 84 +5 +5 1013.2 988.4 +5.3
06 13.04 В 2 20 км 9/0
[Ac trans Ci fib]
+12.4 +3.3 54 +12 +16 1012.5 988.3
09 13.04 В 1 20 км 8/5 600 м
[Cu hum Ci fib]
+18.9 +2.7 34 +20 +27 1011.3 987.7
12 13.04 ЮВ 1 20 км 10/8 600 м
[Cu med, cong Ac cuf Ci fib]
+18.6 +2.9 35 +20 +21 1011.0 987.3
15 13.04 С 3 20 км 8/6 600 м
[Sc diur, vesp Ac cuf Ci fib]
+13.6 +6.7 63 +13 +13 1012.3 988.2 +20.5
18 13.04 В 2 20 км 6/0
[Ac trans]
+11.0 +7.5 79 +10 +10 1012.7 988.4
21 13.04 В 1 20 км 8/0
[Ac trans]
+10.4 +7.6 83 +10 +10 1013.0 988.6
00 14.04 В 3 20 км 10/0
[Ac und]
+9.0 +7.4 90 +6 +6 1013.4 988.9
03 14.04 В 4 20 км 10/0
[Ac As]
+6.9 +6.0 94 +3 +3 1014.0 989.3 +6.9
06 14.04 В 4 20 км 10/0
[Ac und]
+6.0 +4.2 88 +2 +4 1015.8 991.0 +5.9
09 14.04 В 5 20 км 8/0
[Ac trans Cs]
+9.1 +5.0 75 +6 +11 1015.4 990.9
12 14.04 В 5 20 км 8/0
[Ac trans]
+12.0 +3.5 56 +10 +12 1015.8 991.5
15 14.04 В 4
{10}
20 км ясно +11.2 +3.0 57 +9 +9 1015.6 991.2 +12.9
18 14.04 В 7-10
{11}
20 км 8/0
[Ac trans Ci fib]
+8.5 +2.4 65 +5 +5 1016.9 992.2
21 14.04 В 6-11
{11}
20 км 10/0
[Ac und]
+6.9 +1.0 66 +3 +3 1017.6 992.8
00 15.04 В 5-10
{11}
20 км 10/0
[Ac und]
+4.9 +0.8 75 0 0 1018.3 993.3
03 15.04 В 6-10
{12}
20 км 10/0
[Ac und]
+5.1 +0.6 73 0 0 1018.9 993.9 +4.8
06 15.04 В 6-11
{12}
20 км 10/9 600 м
[Sc Ac trans]
+6.4 +1.7 72 +2 +2 1020.2 995.3
09 15.04 В 7-10
{13}
20 км 10/8 600 м
[Sc Ac und]
+8.7 +1.5 61 +5 +5 1021.1 996.4
12 15.04 В 6
{11}
20 км 9/4 600 м
[Sc Ac As]
+10.0 +1.7 56 +7 +8 1021.5 996.9
15 15.04 В 5
{10}
20 км 8/6 600 м
[Sc Ac As]
+9.7 +2.0 59 +7 +7 1021.0 996.4 +10.6
18 15.04 В 3 20 км 10/0
[Ac und]
+8.0 +2.6 69 +6 +6 1021.6 996.8
21 15.04 В 2 20 км 10/0
[Ac und]
+7.7 +1.7 66 +6 +6 1021.9 997.1
00 16.04 В 5 20 км 10/0
[Ac und]
+6.9 -0.6 59 +3 +3 1021.5 996.6
03 16.04 В 4 20 км 9/0
[Ac As]
+5.6 -2.6 56 +2 +2 1021.3 996.3 +4.9
06 16.04 В 5 20 км 6/0
[Ac As]
+8.0 -3.4 44 +5 +7 1021.5 996.7
09 16.04 В 3 20 км 5/0
[Ac As]
+13.5 -2.1 34 +13 +20 1020.2 995.9
12 16.04 С 3 20 км 3/0
[Ac trans]
+15.4 -5.8 23 +15 +20 1018.4 994.3
15 16.04 С 4 20 км 4/0
[Ac As Ci fib]
+13.8 -6.5 24 +13 +13 1018.1 993.9 +15.7
18 16.04 С 3 20 км ясно +7.2 -2.0 52 +5 +5 1019.6 994.8
21 16.04 В 7-12
{14}
20 км ясно +5.1 -1.6 62 0 0 1022.1 997.0
00 17.04 СВ 5
{12}
20 км ясно +2.9 -2.5 68 -2 -2 1023.0 997.7
03 17.04 В 7-13
{13}
20 км 3/0
[Ac As]
+1.8 -3.3 69 -4 -4 1024.9 999.4 +1.6
06 17.04 В 8-14
{16}
20 км 3/0
[Ac trans]
+3.2 -7.3 46 -3 -1 1026.8 1001.4
09 17.04 В 8-15
{16}
20 км 3/0
[Ac trans]
+5.5 -13.0 25 +1 +3 1027.3 1002.1
12 17.04 В 7-13
{16}
20 км ясно +6.9 -14.0 21 +3 +5 1027.8 1002.7
15 17.04 В 6-11
{15}
20 км ясно +5.3 -15.1 21 +1 +2 1028.1 1002.9 +7.1
18 17.04 В 3
{11}
20 км ясно +0.3 -13.2 35 -3 -3 1030.4 1004.6
21 17.04 В 2 20 км ясно -2.1 -12.2 46 -5 -5 1031.3 1005.3
00 18.04 В 2 20 км ясно -4.2 -11.4 57 -8 -8 1031.2 1005.0
03 18.04 В 1 20 км ясно -3.3 -9.8 61 -5 -4 1031.7 1005.6 -5.2
06 18.04 В 2 20 км ясно +2.0 -12.0 35 -0 +8 1031.5 1005.9
09 18.04 В 3 20 км ясно +5.6 -13.9 23 +3 +14 опасность
простуды
1030.1 1004.8

 

Местоположение метеостанции Октябрьский Городок (Саратовская область, Россия): широта 51.63 долгота 45.45 высота над уровнем моря 201 м.

В архиве по умолчанию представлена погода в Октябрьском Городке за последнюю неделю. Архивные данные за месяц целиком и за предыдущие месяцы, начиная с января 2011 года, Вы можете получить, выбрав интересующий диапазон дат из раскрывающегося списка и нажав кнопку "Ввод!".


*Определитесь, кто Вы:
робот инопланетянин человек

Внимание! Время в таблицах - всемирное. Для получения местного времени необходимо прибавить поправку, которая равна 4 ч.

Смотрите также архив погоды в соседних городах и на ближайших метеорологических станциях:

Погода в Саратове ЮВ (Саратовская область, Россия) (39 км)
Погода в Аткарске (Саратовская область, Россия) (39 км)
Погода в Саратове (Саратовская область, Россия) (41 км)
Погода в Сплавнухе (Саратовская область, Россия) (62 км)
Погода в Калининске (Саратовская область, Россия) (68 км)
Погода в Петровске (Саратовская область, Россия) (72 км)
Погода в Маркс (Саратовская область, Россия) (89 км)
Погода в Карабулаке (Саратовская область, Россия) (100 км)
Погода в Рудне (Волгоградская область, Россия) (108 км)
Погода в Колышлее (Пензенская область, Россия) (128 км)

Пояснения к столбцам:

Ветер - указаны скорость ветра в м/с - средняя за 10 мин, порывы в срок и между сроками (в фигурных скобках) и направление, откуда дует ветер: С - северный, СВ - северо-восточный, В - восточный, ЮВ - юго-восточный, Ю - южный, ЮЗ - юго-западный, З - западный, СЗ - северо-западный.
Видимость - горизонтальная дальность видимости в метрах или километрах. При видимости от 1 до 10 км при отсутствии осадков обычно наблюдается дымка, при ухудшении видимости до 1 км и менее - туман. В сухую погоду видимость может ухудшаться дымом, пылью или мглою.
Явления - указаны атмосферные явления, наблюдавшиеся в срок или в последний час перед сроком; фигурными скобками обозначены явления, наблюдавшиеся между сроками (за 1-3 часа до срока); квадратными скобками обозначены град или гололедные отложения с указанием их диаметра в мм.
Облачность - указаны через наклонную черту общая и нижняя облачность в баллах и высота нижней границы облаков в метрах; квадратными скобками обозначены формы облаков: Ci - перистые, Cs - перисто-слоистые, Cc - перисто-кучевые, Ac - высококучевые, As - высокослоистые, Sc - слоисто-кучевые, Ns - слоисто-дождевые, Cu - кучевые, Cb - кучево-дождевые. Подробнее классификацию облаков см. в Атласе облаков (PDF).
T - Температура воздуха - температура, измеренная на высоте 2 м над землей.
Td - Температура точки росы - температура, при понижении до которой содержащийся в воздухе водяной пар достигнет насыщения.
f - Относительная влажность воздуха - влажноcть воздуха, измеренная на высоте 2 м над землей.
Te - Эффективная температура - температура, которую ощущает одетый по сезону человек в тени. Характеристика душности погоды. При расчете учитывается влияние влажности воздуха и скорости ветра на теплоощущения человека.
Tes - Эффективная температура на солнце - температура, которую ощущает человек, с поправкой на солнечный нагрев. Характеристика знойности погоды. Зависит от высоты солнца над горизонтом, облачности и скорости ветра. Ночью, в пасмурную погоду, а также при ветре 12 м/с и более поправка равна нулю.
P - Атмосферное давление - приведенное к уровню моря атмосферное давление.
Po - Атмосферное давление - измеренное на уровне метеостанции атмосферное давление.
Tmin - Минимальная температура - минимум температуры воздуха на высоте 2 м над землей.
Tmax - Максимальная температура - максимум температуры воздуха на высоте 2 м над землей.
R - Количество осадков - Количество выпавших осадков за период времени, мм. При наведении курсора мыши на число - период времени, за который выпало указанное количество осадков.
R24 - Количество осадков - Количество выпавших осадков за 24 часа, мм.
S - Снежный покров - Высота снежного покрова, см. При наведении курсора мыши на число - состояние снежного покрова и степень покрытия местности в баллах.